ARG1857 SAVY-SABE

Flight info

Callsign ARG1857
Flight time 1h 31m
Altitude 37000
Route LOMUS2G LOMUS UT693 BCA UW22 VALOS VALOS9R
Aircraft B38M/M-SDE1FGHILORVWXY/HB1

Departure

Time 2026-05-07 14:35
Airport El Tehuelche Airport (SAVY)

Arrival

Time 2026-05-07 16:06
Airport Aeroparque Jorge Newbery (SABE)
Time Latitude Longitude Altitude Speed Heading
2026-05-07 14:19 -42.75542 -65.10035 450 ft 0 kts 276°
2026-05-07 14:26 -42.75542 -65.10034 450 ft 0 kts 276°
2026-05-07 14:31 -42.75542 -65.10036 450 ft 0 kts 264°
2026-05-07 14:31 -42.75545 -65.10039 450 ft 1 kts 221°
2026-05-07 14:31 -42.75551 -65.10039 450 ft 2 kts 179°
2026-05-07 14:31 -42.75576 -65.10025 451 ft 6 kts 155°
2026-05-07 14:32 -42.75622 -65.09992 450 ft 9 kts 149°
2026-05-07 14:32 -42.75685 -65.09937 447 ft 13 kts 146°
2026-05-07 14:32 -42.75706 -65.09815 437 ft 16 kts 65°
2026-05-07 14:32 -42.75647 -65.09686 448 ft 17 kts 58°
2026-05-07 14:33 -42.75581 -65.09543 448 ft 19 kts 58°
2026-05-07 14:33 -42.75511 -65.09388 449 ft 20 kts 58°
2026-05-07 14:33 -42.75436 -65.09225 448 ft 19 kts 58°
2026-05-07 14:33 -42.75367 -65.09073 447 ft 17 kts 62°
2026-05-07 14:34 -42.75343 -65.08994 430 ft 1 kts 333°
2026-05-07 14:34 -42.75343 -65.09000 430 ft 2 kts 279°
2026-05-07 14:34 -42.75359 -65.09055 434 ft 15 kts 239°
2026-05-07 14:34 -42.75566 -65.09503 449 ft 96 kts 237°
2026-05-07 14:35 -42.76045 -65.10526 542 ft 155 kts 238°
2026-05-07 14:35 -42.76663 -65.11932 1160 ft 183 kts 241°
2026-05-07 14:35 -42.77269 -65.13450 2438 ft 179 kts 238°
2026-05-07 14:35 -42.77815 -65.14919 3709 ft 177 kts 236°
2026-05-07 14:36 -42.78500 -65.16432 4364 ft 202 kts 232°
2026-05-07 14:36 -42.79347 -65.18103 5061 ft 222 kts 234°
2026-05-07 14:36 -42.79788 -65.20147 6204 ft 233 kts 264°
2026-05-07 14:36 -42.79378 -65.22320 7317 ft 248 kts 291°
2026-05-07 14:37 -42.78211 -65.24192 8063 ft 276 kts 318°
2026-05-07 14:37 -42.74373 -65.25214 9915 ft 297 kts 14°
2026-05-07 14:37 -42.72469 -65.24111 10617 ft 307 kts 29°
2026-05-07 14:38 -42.70526 -65.22746 11178 ft 323 kts 34°
2026-05-07 14:38 -42.68897 -65.20601 11803 ft 333 kts 57°
2026-05-07 14:38 -42.67947 -65.17699 12429 ft 342 kts 71°
2026-05-07 14:38 -42.67121 -65.14623 13159 ft 348 kts 67°
2026-05-07 14:39 -42.65858 -65.11844 14006 ft 347 kts 46°
2026-05-07 14:39 -42.63946 -65.09849 14718 ft 349 kts 27°
2026-05-07 14:39 -42.61799 -65.08284 15486 ft 352 kts 27°
2026-05-07 14:39 -42.59630 -65.06701 16307 ft 356 kts 27°
2026-05-07 14:40 -42.57426 -65.05117 17088 ft 360 kts 26°
2026-05-07 14:40 -42.55201 -65.03531 17774 ft 362 kts 26°
2026-05-07 14:40 -42.52963 -65.01927 18418 ft 365 kts 26°
2026-05-07 14:40 -42.50731 -65.00345 18934 ft 369 kts 26°
2026-05-07 14:41 -42.48422 -64.98708 19504 ft 372 kts 26°
2026-05-07 14:41 -42.46149 -64.97099 20027 ft 375 kts 26°
2026-05-07 14:41 -42.43799 -64.95432 20580 ft 378 kts 26°
2026-05-07 14:41 -42.41486 -64.93791 21070 ft 382 kts 27°
2026-05-07 14:42 -42.39120 -64.92112 21601 ft 385 kts 26°
2026-05-07 14:42 -42.36739 -64.90436 22121 ft 388 kts 27°
2026-05-07 14:42 -42.34335 -64.88735 22658 ft 391 kts 27°
2026-05-07 14:42 -42.31908 -64.87034 23118 ft 395 kts 27°
2026-05-07 14:43 -42.29454 -64.85341 23576 ft 398 kts 27°
2026-05-07 14:43 -42.26975 -64.83636 24044 ft 400 kts 27°
2026-05-07 14:43 -42.24486 -64.81922 24465 ft 405 kts 26°
2026-05-07 14:43 -42.21961 -64.80189 24840 ft 409 kts 26°
2026-05-07 14:44 -42.19417 -64.78436 25210 ft 412 kts 26°
2026-05-07 14:44 -42.16852 -64.76677 25643 ft 414 kts 26°
2026-05-07 14:44 -42.14272 -64.74906 26052 ft 417 kts 26°
2026-05-07 14:44 -42.11708 -64.73148 26361 ft 422 kts 26°
2026-05-07 14:45 -42.09047 -64.71331 26750 ft 424 kts 26°
2026-05-07 14:45 -42.06439 -64.69548 27072 ft 428 kts 26°
2026-05-07 14:45 -42.03768 -64.67726 27425 ft 432 kts 26°
2026-05-07 14:45 -42.01082 -64.65892 27777 ft 435 kts 26°
2026-05-07 14:46 -41.98356 -64.64032 28053 ft 440 kts 26°
2026-05-07 14:46 -41.95618 -64.62172 28417 ft 442 kts 26°
2026-05-07 14:46 -41.92865 -64.60284 28694 ft 447 kts 26°
2026-05-07 14:46 -41.90081 -64.58389 29030 ft 449 kts 26°
2026-05-07 14:47 -41.87290 -64.56497 29307 ft 453 kts 26°
2026-05-07 14:47 -41.84457 -64.54581 29638 ft 456 kts 26°
2026-05-07 14:47 -41.81619 -64.52655 29916 ft 460 kts 25°
2026-05-07 14:47 -41.78747 -64.50710 30124 ft 463 kts 26°
2026-05-07 14:48 -41.75860 -64.48756 30386 ft 465 kts 25°
2026-05-07 14:48 -41.72959 -64.46804 30558 ft 470 kts 25°
2026-05-07 14:48 -41.70074 -64.44851 30826 ft 471 kts 26°
2026-05-07 14:48 -41.67141 -64.42866 31025 ft 475 kts 26°
2026-05-07 14:49 -41.64191 -64.40841 31241 ft 477 kts 26°
2026-05-07 14:49 -41.61217 -64.38872 31490 ft 479 kts 25°
2026-05-07 14:49 -41.58217 -64.36864 31645 ft 483 kts 25°
2026-05-07 14:49 -41.55219 -64.34847 31938 ft 484 kts 26°
2026-05-07 14:50 -41.52191 -64.32816 32045 ft 488 kts 26°
2026-05-07 14:50 -41.49182 -64.30707 32325 ft 489 kts 25°
2026-05-07 14:50 -41.46103 -64.28701 32433 ft 494 kts 25°
2026-05-07 14:50 -41.43029 -64.26651 32670 ft 495 kts 25°
2026-05-07 14:51 -41.39941 -64.24620 33005 ft 494 kts 25°
2026-05-07 14:51 -41.37904 -64.23265 33180 ft 495 kts 26°
2026-05-07 14:51 -41.34826 -64.21208 33473 ft 495 kts 25°
2026-05-07 14:51 -41.31752 -64.19141 33778 ft 495 kts 26°
2026-05-07 14:52 -41.28682 -64.17083 34075 ft 493 kts 25°
2026-05-07 14:52 -41.25610 -64.15048 34285 ft 494 kts 26°
2026-05-07 14:52 -41.22547 -64.13014 34641 ft 490 kts 25°
2026-05-07 14:52 -41.19492 -64.11007 34833 ft 491 kts 25°
2026-05-07 14:53 -41.16429 -64.08988 35048 ft 491 kts 25°
2026-05-07 14:53 -41.13425 -64.06825 35304 ft 492 kts 33°
2026-05-07 14:53 -41.10835 -64.03881 35567 ft 491 kts 48°
2026-05-07 14:53 -41.08776 -64.00291 35919 ft 488 kts 54°
2026-05-07 14:54 -41.06828 -63.96588 36022 ft 491 kts 55°
2026-05-07 14:54 -41.04881 -63.92864 36233 ft 491 kts 56°
2026-05-07 14:54 -41.03001 -63.89170 36508 ft 489 kts 55°
2026-05-07 14:54 -41.01106 -63.85422 36635 ft 490 kts 55°
2026-05-07 14:55 -40.99204 -63.81679 36824 ft 489 kts 56°
2026-05-07 14:55 -40.97287 -63.77934 36786 ft 492 kts 55°
2026-05-07 14:55 -40.93456 -63.70412 36795 ft 493 kts 54°
2026-05-07 14:56 -40.91293 -63.66930 36772 ft 488 kts 40°
2026-05-07 14:56 -40.88589 -63.64274 36797 ft 485 kts 28°
2026-05-07 14:56 -40.82728 -63.59865 36785 ft 486 kts 27°
2026-05-07 14:57 -40.76790 -63.55586 36777 ft 486 kts 26°
2026-05-07 14:57 -40.70908 -63.51200 36750 ft 483 kts 24°
2026-05-07 14:58 -40.64998 -63.47085 36773 ft 484 kts 26°
2026-05-07 14:58 -40.59083 -63.42883 36798 ft 482 kts 26°
2026-05-07 14:59 -40.53195 -63.38649 36774 ft 482 kts 27°
2026-05-07 14:59 -40.47309 -63.34437 36770 ft 481 kts 26°
2026-05-07 15:00 -40.41501 -63.30062 36771 ft 481 kts 28°
2026-05-07 15:00 -40.35572 -63.26059 36751 ft 479 kts 25°
2026-05-07 15:01 -40.29721 -63.21975 36754 ft 479 kts 26°
2026-05-07 15:01 -40.23866 -63.17832 36766 ft 478 kts 26°
2026-05-07 15:02 -40.18028 -63.13703 36760 ft 477 kts 26°
2026-05-07 15:02 -40.12200 -63.09544 36752 ft 477 kts 27°
2026-05-07 15:03 -40.06399 -63.05345 36750 ft 475 kts 24°
2026-05-07 15:03 -40.00531 -63.01324 36742 ft 476 kts 26°
2026-05-07 15:04 -39.94729 -62.97286 36757 ft 475 kts 25°
2026-05-07 15:04 -39.88894 -62.93240 36756 ft 475 kts 26°
2026-05-07 15:05 -39.83068 -62.89174 36737 ft 475 kts 26°
2026-05-07 15:05 -39.77260 -62.85113 36747 ft 473 kts 25°
2026-05-07 15:06 -39.71444 -62.81095 36746 ft 473 kts 25°
2026-05-07 15:06 -39.65636 -62.77075 36743 ft 472 kts 26°
2026-05-07 15:07 -39.59858 -62.73036 36746 ft 471 kts 25°
2026-05-07 15:07 -39.54102 -62.69081 36743 ft 470 kts 25°
2026-05-07 15:08 -39.48296 -62.65194 36737 ft 469 kts 24°
2026-05-07 15:08 -39.42473 -62.61391 36739 ft 469 kts 24°
2026-05-07 15:09 -39.36655 -62.57590 36737 ft 468 kts 24°
2026-05-07 15:09 -39.30840 -62.53800 36736 ft 467 kts 24°
2026-05-07 15:10 -39.25028 -62.50019 36736 ft 467 kts 24°
2026-05-07 15:10 -39.19268 -62.46277 36737 ft 466 kts 24°
2026-05-07 15:11 -39.13477 -62.42523 36737 ft 465 kts 24°
2026-05-07 15:11 -39.07689 -62.38778 36735 ft 465 kts 24°
2026-05-07 15:12 -39.01909 -62.35044 36731 ft 465 kts 24°
2026-05-07 15:12 -38.96127 -62.31317 36722 ft 464 kts 24°
2026-05-07 15:13 -38.90356 -62.27602 36710 ft 464 kts 24°
2026-05-07 15:13 -38.84587 -62.23897 36696 ft 463 kts 24°
2026-05-07 15:14 -38.78822 -62.20200 36690 ft 463 kts 24°
2026-05-07 15:14 -38.73099 -62.16534 36691 ft 463 kts 24°
2026-05-07 15:15 -38.67736 -62.11937 36684 ft 465 kts 32°
2026-05-07 15:15 -38.62444 -62.07148 36695 ft 465 kts 32°
2026-05-07 15:16 -38.57172 -62.02369 36709 ft 465 kts 32°
2026-05-07 15:16 -38.51889 -61.97589 36717 ft 464 kts 32°
2026-05-07 15:17 -38.46615 -61.92825 36728 ft 464 kts 32°
2026-05-07 15:17 -38.41338 -61.88066 36731 ft 463 kts 32°
2026-05-07 15:18 -38.36072 -61.83327 36729 ft 463 kts 32°
2026-05-07 15:18 -38.30817 -61.78605 36728 ft 462 kts 31°
2026-05-07 15:19 -38.25599 -61.73926 36725 ft 461 kts 31°
2026-05-07 15:19 -38.20355 -61.69231 36727 ft 460 kts 31°
2026-05-07 15:20 -38.15119 -61.64552 36725 ft 460 kts 31°
2026-05-07 15:20 -38.09882 -61.59881 36725 ft 459 kts 31°
2026-05-07 15:21 -38.04660 -61.55231 36721 ft 458 kts 31°
2026-05-07 15:21 -37.99447 -61.50597 36732 ft 457 kts 31°
2026-05-07 15:22 -37.94239 -61.45979 36714 ft 457 kts 31°
2026-05-07 15:22 -37.89035 -61.41373 36712 ft 456 kts 31°
2026-05-07 15:23 -37.83867 -61.36806 36714 ft 455 kts 31°
2026-05-07 15:23 -37.78669 -61.32221 36714 ft 455 kts 31°
2026-05-07 15:24 -37.73478 -61.27649 36707 ft 454 kts 31°
2026-05-07 15:24 -37.68288 -61.23087 36703 ft 454 kts 31°
2026-05-07 15:25 -37.63108 -61.18542 36703 ft 453 kts 30°
2026-05-07 15:25 -37.57971 -61.14041 36707 ft 452 kts 30°
2026-05-07 15:26 -37.52800 -61.09520 36707 ft 452 kts 30°
2026-05-07 15:26 -37.47638 -61.05014 36707 ft 451 kts 30°
2026-05-07 15:27 -37.42477 -61.00516 36707 ft 450 kts 30°
2026-05-07 15:27 -37.37360 -60.96064 36707 ft 450 kts 30°
2026-05-07 15:28 -37.32216 -60.91596 36704 ft 449 kts 29°
2026-05-07 15:28 -37.27081 -60.87143 36708 ft 448 kts 29°
2026-05-07 15:29 -37.21957 -60.82708 36708 ft 447 kts 29°
2026-05-07 15:29 -37.16841 -60.78287 36707 ft 446 kts 29°
2026-05-07 15:30 -37.11736 -60.73883 36709 ft 445 kts 28°
2026-05-07 15:30 -37.06639 -60.69492 36707 ft 444 kts 28°
2026-05-07 15:31 -37.01548 -60.65115 36706 ft 443 kts 28°
2026-05-07 15:31 -36.96471 -60.60756 36709 ft 442 kts 28°
2026-05-07 15:32 -36.91399 -60.56409 36706 ft 441 kts 28°
2026-05-07 15:32 -36.86336 -60.52077 36707 ft 440 kts 28°
2026-05-07 15:33 -36.81283 -60.47760 36706 ft 439 kts 27°
2026-05-07 15:33 -36.76242 -60.43459 36707 ft 438 kts 27°
2026-05-07 15:34 -36.71212 -60.39178 36709 ft 437 kts 27°
2026-05-07 15:34 -36.66217 -60.34933 36707 ft 436 kts 27°
2026-05-07 15:35 -36.61199 -60.30674 36707 ft 435 kts 27°
2026-05-07 15:35 -36.56200 -60.26438 36703 ft 434 kts 27°
2026-05-07 15:36 -36.51215 -60.22227 36703 ft 432 kts 27°
2026-05-07 15:36 -36.46243 -60.18054 36701 ft 430 kts 27°
2026-05-07 15:37 -36.41295 -60.13904 36706 ft 428 kts 26°
2026-05-07 15:37 -36.36361 -60.09773 36703 ft 426 kts 26°
2026-05-07 15:38 -36.31454 -60.05672 36701 ft 424 kts 26°
2026-05-07 15:38 -36.26602 -60.01622 36701 ft 422 kts 26°
2026-05-07 15:39 -36.21736 -59.97567 36698 ft 420 kts 26°
2026-05-07 15:39 -36.16888 -59.93533 36694 ft 419 kts 26°
2026-05-07 15:40 -36.12086 -59.89544 36683 ft 417 kts 26°
2026-05-07 15:40 -36.08060 -59.86203 36696 ft 415 kts 26°
2026-05-07 15:41 -36.04901 -59.83584 36299 ft 407 kts 26°
2026-05-07 15:41 -36.02576 -59.81658 35862 ft 398 kts 25°
2026-05-07 15:41 -36.00289 -59.79768 35390 ft 394 kts 25°
2026-05-07 15:41 -35.98024 -59.77895 34928 ft 391 kts 25°
2026-05-07 15:42 -35.95769 -59.76032 34481 ft 388 kts 24°
2026-05-07 15:42 -35.94256 -59.74773 34178 ft 387 kts 24°
2026-05-07 15:42 -35.91955 -59.73177 33744 ft 377 kts 19°
2026-05-07 15:42 -35.89830 -59.71236 33223 ft 399 kts 37°
2026-05-07 15:43 -35.88205 -59.68331 32697 ft 419 kts 46°
2026-05-07 15:43 -35.86756 -59.65189 32144 ft 423 kts 47°
2026-05-07 15:43 -35.85031 -59.62396 31581 ft 396 kts 31°
2026-05-07 15:43 -35.82937 -59.60224 31100 ft 398 kts 31°
2026-05-07 15:44 -35.80939 -59.57815 30615 ft 404 kts 33°
2026-05-07 15:44 -35.78971 -59.55329 30123 ft 407 kts 34°
2026-05-07 15:44 -35.77007 -59.52798 29614 ft 409 kts 34°
2026-05-07 15:44 -35.75045 -59.50245 29034 ft 412 kts 34°
2026-05-07 15:45 -35.73073 -59.47660 28457 ft 416 kts 35°
2026-05-07 15:45 -35.71085 -59.45049 27882 ft 420 kts 35°
2026-05-07 15:45 -35.69081 -59.42417 27313 ft 423 kts 35°
2026-05-07 15:45 -35.67056 -59.39757 26756 ft 427 kts 35°
2026-05-07 15:46 -35.62980 -59.34414 25668 ft 435 kts 36°
2026-05-07 15:46 -35.60900 -59.31689 25128 ft 439 kts 36°
2026-05-07 15:46 -35.58803 -59.28945 24608 ft 440 kts 36°
2026-05-07 15:47 -35.56717 -59.26217 24110 ft 435 kts 36°
2026-05-07 15:47 -35.54650 -59.23519 23610 ft 433 kts 36°
2026-05-07 15:47 -35.52580 -59.20818 23097 ft 433 kts 36°
2026-05-07 15:47 -35.50521 -59.18132 22483 ft 433 kts 36°
2026-05-07 15:48 -35.48458 -59.15444 21907 ft 432 kts 36°
2026-05-07 15:48 -35.46398 -59.12763 21322 ft 432 kts 36°
2026-05-07 15:48 -35.44334 -59.10078 20748 ft 431 kts 36°
2026-05-07 15:48 -35.42273 -59.07399 20230 ft 431 kts 36°
2026-05-07 15:49 -35.40217 -59.04728 19718 ft 431 kts 37°
2026-05-07 15:49 -35.38159 -59.02058 19212 ft 431 kts 37°
2026-05-07 15:49 -35.36101 -58.99388 18709 ft 430 kts 37°
2026-05-07 15:49 -35.34052 -58.96734 18223 ft 425 kts 37°
2026-05-07 15:50 -35.32067 -58.94163 17710 ft 419 kts 37°
2026-05-07 15:50 -35.30079 -58.91590 17157 ft 413 kts 38°
2026-05-07 15:50 -35.28117 -58.89054 16622 ft 407 kts 38°
2026-05-07 15:50 -35.26181 -58.86553 16080 ft 402 kts 39°
2026-05-07 15:51 -35.24274 -58.84092 15601 ft 396 kts 39°
2026-05-07 15:51 -35.22389 -58.81662 15103 ft 392 kts 40°
2026-05-07 15:51 -35.20525 -58.79259 14623 ft 387 kts 40°
2026-05-07 15:51 -35.18684 -58.76889 14148 ft 383 kts 41°
2026-05-07 15:52 -35.16850 -58.74529 13671 ft 380 kts 41°
2026-05-07 15:52 -35.15042 -58.72204 13175 ft 376 kts 41°
2026-05-07 15:52 -35.13255 -58.69906 12660 ft 366 kts 41°
2026-05-07 15:52 -35.11539 -58.67703 12198 ft 350 kts 42°
2026-05-07 15:53 -35.09888 -58.65583 11728 ft 337 kts 42°
2026-05-07 15:53 -35.08301 -58.63548 11261 ft 325 kts 43°
2026-05-07 15:53 -35.06773 -58.61590 10884 ft 312 kts 43°
2026-05-07 15:53 -35.05325 -58.59735 10525 ft 300 kts 43°
2026-05-07 15:54 -35.03912 -58.57927 10152 ft 289 kts 42°
2026-05-07 15:54 -35.02550 -58.56189 9784 ft 279 kts 43°
2026-05-07 15:54 -35.01233 -58.54500 9420 ft 270 kts 44°
2026-05-07 15:54 -34.99966 -58.52869 9070 ft 260 kts 43°
2026-05-07 15:55 -34.98737 -58.51300 8712 ft 252 kts 44°
2026-05-07 15:55 -34.97545 -58.49780 8384 ft 246 kts 44°
2026-05-07 15:55 -34.96370 -58.48276 8087 ft 244 kts 44°
2026-05-07 15:55 -34.95210 -58.46776 7751 ft 243 kts 44°
2026-05-07 15:56 -34.94045 -58.45282 7445 ft 242 kts 44°
2026-05-07 15:56 -34.92885 -58.43819 7178 ft 239 kts 44°
2026-05-07 15:56 -34.91729 -58.42357 6883 ft 238 kts 45°
2026-05-07 15:56 -34.90612 -58.40931 6657 ft 235 kts 45°
2026-05-07 15:57 -34.89488 -58.39485 6382 ft 235 kts 45°
2026-05-07 15:57 -34.88362 -58.38053 6155 ft 232 kts 45°
2026-05-07 15:57 -34.87268 -58.36666 5923 ft 224 kts 45°
2026-05-07 15:57 -34.86203 -58.35315 5636 ft 217 kts 46°
2026-05-07 15:58 -34.85179 -58.34021 5353 ft 208 kts 45°
2026-05-07 15:58 -34.84210 -58.32780 5132 ft 196 kts 45°
2026-05-07 15:58 -34.83290 -58.31617 4930 ft 186 kts 45°
2026-05-07 15:58 -34.82391 -58.30478 4763 ft 187 kts 45°
2026-05-07 15:59 -34.81487 -58.29332 4582 ft 187 kts 45°
2026-05-07 15:59 -34.80587 -58.28190 4381 ft 187 kts 46°
2026-05-07 15:59 -34.79690 -58.27053 4196 ft 185 kts 45°
2026-05-07 15:59 -34.78799 -58.25931 4005 ft 184 kts 44°
2026-05-07 16:00 -34.77836 -58.24884 3816 ft 187 kts 28°
2026-05-07 16:00 -34.76620 -58.24481 3603 ft 180 kts 358°
2026-05-07 16:00 -34.75362 -58.24463 3447 ft 182 kts 358°
2026-05-07 16:00 -34.74094 -58.24407 3263 ft 182 kts 359°
2026-05-07 16:01 -34.72815 -58.24330 3066 ft 186 kts
2026-05-07 16:01 -34.71499 -58.24237 2860 ft 192 kts
2026-05-07 16:01 -34.70160 -58.24128 2665 ft 193 kts
2026-05-07 16:01 -34.68831 -58.24021 2408 ft 191 kts
2026-05-07 16:02 -34.67530 -58.23909 2192 ft 189 kts
2026-05-07 16:02 -34.66271 -58.24090 1941 ft 178 kts 328°
2026-05-07 16:02 -34.65384 -58.25029 1767 ft 163 kts 302°
2026-05-07 16:02 -34.64725 -58.26027 1741 ft 144 kts 303°
2026-05-07 16:03 -34.64088 -58.26988 1809 ft 147 kts 301°
2026-05-07 16:03 -34.63492 -58.27990 1764 ft 146 kts 298°
2026-05-07 16:03 -34.62924 -58.29006 1743 ft 145 kts 297°
2026-05-07 16:03 -34.62357 -58.30025 1724 ft 145 kts 297°
2026-05-07 16:04 -34.61795 -58.31039 1552 ft 145 kts 297°
2026-05-07 16:04 -34.61232 -58.32064 1560 ft 146 kts 300°
2026-05-07 16:04 -34.60663 -58.33079 1442 ft 145 kts 300°
2026-05-07 16:04 -34.60096 -58.34086 1299 ft 145 kts 300°
2026-05-07 16:05 -34.59530 -58.35097 1175 ft 145 kts 297°
2026-05-07 16:05 -34.58965 -58.36103 1045 ft 145 kts 299°
2026-05-07 16:05 -34.58360 -58.37072 860 ft 142 kts 299°
2026-05-07 16:05 -34.57812 -58.38071 664 ft 143 kts 293°
2026-05-07 16:06 -34.57290 -58.39110 449 ft 144 kts 298°
2026-05-07 16:06 -34.56738 -58.40103 162 ft 141 kts 295°
2026-05-07 16:06 -34.56202 -58.41075 31 ft 136 kts 295°
2026-05-07 16:06 -34.55855 -58.41721 27 ft 49 kts 304°
2026-05-07 16:07 -34.55723 -58.41901 28 ft 16 kts 353°
2026-05-07 16:07 -34.55679 -58.41842 29 ft 9 kts 122°
2026-05-07 16:07 -34.55711 -58.41780 29 ft 8 kts 122°
2026-05-07 16:07 -34.55742 -58.41722 29 ft 8 kts 122°
2026-05-07 16:08 -34.55770 -58.41665 29 ft 9 kts 120°
2026-05-07 16:08 -34.55797 -58.41601 29 ft 9 kts 116°
2026-05-07 16:08 -34.55839 -58.41499 29 ft 18 kts 116°
2026-05-07 16:08 -34.55901 -58.41350 29 ft 17 kts 105°
2026-05-07 16:09 -34.55856 -58.41249 29 ft 13 kts 53°
2026-05-07 16:09 -34.55825 -58.41210 29 ft 0 kts 40°